Location: Austin
(30.3000°N, 97.7500°W)
Time: 05:52:43
(UTC-06:00)

Cosmos 1656 - Pass Details

Date: 05 February 2026
Orbit: 797 x 847 km, 71.1° (Epoch: 14 February)

Event Time Altitude Azimuth Distance (km) Brightness Sun altitude
Exits shadow 05:31:13 56° 280° (W) 996 3.7 -23.6°
Maximum altitude 05:31:29 57° 291° (WNW) 990 3.7 -23.6°
Drops below altitude 10° 05:37:02 10° 10° (N) 2,460 6.2 -22.4°
Sets 05:39:32 0° 15° (NNE) 3,391 7.0 -21.8°
